COSMOS 2251 DEB, 35462

Orbit data source: Space-Track

COSMOS 2251 DEB, 35462 is space debris in LEO originally from a launch on Wed, 16 Jun 1993 UTC launched from the Plesetsk Missile And Space Complex (PKMTR). The debris from Iridium 33, an American commercial communications satellite, has been tracked extensively since its accidental collision with the defunct Russian satellite Cosmos 2251 in 2009. This event, occurring at high speed in low Earth orbit (LEO), generated thousands of pieces of space debris, significantly increasing the risk of further collisions. The Iridium 33 debris cloud has impacted space traffic management and orbital debris mitigation strategies, making it a subject of ongoing study in space situational awareness.

Loading next visibility...
Identifier
35462, 1993-036ALG
Orbit
LEO
Country
Flag of CISCIS
Related business
Manufacturer
Unknown
Mission
Spacecraft
Bus & Motor
Unknown
Mass
Unknown
Launch date (UTC)
1993-06-16 (33 years ago)
Launch vehicle
Unknown
Launch site
Plesetsk Missile And Space Complex (PKMTR)
Object type
Payload
Rocket body
Debris
Shape & HBR
Unknown shape, 0.1 m
Radar Cross Section
Small (<0.1 m²)

Expand to show TLE details & history
Last TLE update: 1 day ago

TLE from 1 day ago
0 COSMOS 2251 DEB
1 35462U 93036ALG 26061.47780639  .00003497  00000-0  13139-2 0  9992
2 35462  74.0357 123.7856 0082790 141.5288 219.1805 14.30041703675204
Epoch: 2026-03-02T11:28Z
TLE epoch observation values (Epoch: 2026-03-02T11:28:02.472Z)
Latitude
0.00004°
Longitude
151.50466°
Altitude
840.41 km
Speed
7.409 km/s
True Right ascension
08h 15m 08s
True Declination
0° 00' 00"
Sunlit
Object was in full shadow at epoch
Visualization orbit readout
Latitude
Unknown
Longitude
Unknown
Altitude
Unknown
Speed
Unknown
Apparent Right ascension
Unknown
Apparent Declination
Unknown
Sunlit
N/A
Visualization observer readout
Local Sidereal Time
21:17:33
Azimuth
Unknown
Elevation
Unknown
Doppler factor
Unknown
Orbital elements
Apogee altitude
848.56 km
Perigee altitude
729.883 km
Semi-major axis
7,167.359 km
Eccentricity
0.00828
Inclination
74.0357°
RAAN
123.7856°
Arg. of periapsis
141.5288°
True anomaly
218.58592°
Mean anomaly
219.1805°
Eccentric anomaly
218.88274°
Mean motion
3.57688 °/min
Orbital period
100.65 mins
BSTAR
0.0013139
Loading maneuver chart data...
Computing Atmospheric mass density...
Loading historical data...
Loading historical data...
Loading historical data...
Loading historical data...
Loading historical data...
Loading historical data...
Loading historical data...

Documentation

Showing up to 5 results
|